Погода в Корсаково

Россия / Орловская область     53°15′58″N   37°21′10″E
темп.,
°C
ветер,
м/с
пор.,
м/с
влажн.,
%
обл.,
%
осадки,
мм/ч
давл.,
гПа
погр.,
м
28 ноября, вс
вс2800:00+3ю61398100 0.0 1003435
03:00+4ю61398100 0.0 1003380
06:00+4юз51096100 0.1 1004507
09:00+3ююз49959 0.1 1006223
12:00+4зюз49835 0.0 1007433
15:00+4юз358073 0.0 1008195
18:00+2ю3388100 0.0 100945
21:00+2ююв379792 0.0 1009122
29 ноября, пн
пн2900:00+4ююв41094100 0.0 1009331
03:00+3юв41194100 0.0 1007239
06:00+4вюв51197100 0.0 1004234
09:00+4всв51299100 1.5 1001256
12:00+5вюв51298100 2.9 998395
15:00+6ю41299100 3.6 996401
18:00+7ю51097100 0.1 994352
21:00+7юв51097100 0.4 990341
30 ноября, вт
вт3000:00+7вюв51298100 4.4 983459
03:00+8ю101585100 9.0 977975
06:00+7юз121793100 3.6 9741018
09:00+1юз142397100 11.3 9801001
12:000зюз142497100 5.8 9841189
15:00+1зюз122086100 6.9 9871018
18:000юз111784100 0.0 9891131
21:000юз10168370 0.1 9891191
1 декабря, ср
ср100:00−2юз91483100 0.0 989937
03:00−2юз8138977 0.1 990869
06:00−3зюз81390100 0.1 990905
09:00−3зюз71295100 0.7 992894
12:00−3з81294100 1.1 994864
15:00−3з71194100 1.8 995831
18:00−4з71192100 0.5 998773
21:00−5зсз61091100 0.6 1000791
2 декабря, чт
чт200:00−5з598791 0.1 1002735
03:00−7з499375 0.1 1004364
06:00−7зюз499320 0.0 1005277
09:00−5ююз41192100 0.0 1005371
12:00−3ю71596100 0.2 1003611
15:00−1ююз81597100 1.3 1002693
18:00+1юз71598100 0.8 1003604
21:00+1юз7149299 0.8 1004491